TimeCDT,TemperatureF,Dew PointF,Humidity,Sea Level PressureIn,VisibilityMPH,Wind Direction,Wind SpeedMPH,Gust SpeedMPH,PrecipitationIn,Events,Conditions,WindDirDegrees,DateUTC
12:15 AM,68.0,59.0,73,30.12,10.0,Variable,3.5,-,N/A,,Clear,0,2014-04-01 05:15:00
12:35 AM,68.0,59.0,73,30.12,10.0,Variable,3.5,-,N/A,,Clear,0,2014-04-01 05:35:00
12:55 AM,68.0,59.0,73,30.12,10.0,Variable,4.6,-,N/A,,Clear,0,2014-04-01 05:55:00
1:15 AM,68.0,59.0,73,30.11,10.0,Variable,5.8,-,N/A,,Clear,0,2014-04-01 06:15:00
1:35 AM,68.0,59.0,73,30.12,10.0,South,9.2,-,N/A,,Partly Cloudy,190,2014-04-01 06:35:00
1:55 AM,68.0,59.0,73,30.11,10.0,Variable,4.6,-,N/A,,Partly Cloudy,0,2014-04-01 06:55:00
2:15 AM,68.0,59.0,73,30.10,10.0,Variable,4.6,-,N/A,,Partly Cloudy,0,2014-04-01 07:15:00
2:35 AM,68.0,59.0,73,30.10,10.0,Variable,5.8,-,N/A,,Scattered Clouds,0,2014-04-01 07:35:00
2:55 AM,68.0,59.0,73,30.09,10.0,Calm,Calm,-,N/A,,Mostly Cloudy,0,2014-04-01 07:55:00
3:15 AM,68.0,59.0,73,30.09,10.0,Calm,Calm,-,N/A,,Scattered Clouds,0,2014-04-01 08:15:00
3:35 AM,68.0,59.0,73,30.09,10.0,Calm,Calm,-,N/A,,Scattered Clouds,0,2014-04-01 08:35:00
3:55 AM,68.0,59.0,73,30.09,10.0,Calm,Calm,-,N/A,,Partly Cloudy,0,2014-04-01 08:55:00
4:15 AM,68.0,59.0,73,30.09,10.0,Calm,Calm,-,N/A,,Clear,0,2014-04-01 09:15:00
4:35 AM,68.0,59.0,73,30.09,10.0,SE,6.9,-,N/A,,Partly Cloudy,130,2014-04-01 09:35:00
4:55 AM,68.0,60.8,78,30.09,10.0,ESE,6.9,-,N/A,,Scattered Clouds,120,2014-04-01 09:55:00
5:15 AM,68.0,60.8,78,30.09,10.0,ESE,6.9,-,N/A,,Scattered Clouds,120,2014-04-01 10:15:00
5:35 AM,68.0,60.8,78,30.10,10.0,SE,4.6,-,N/A,,Mostly Cloudy,130,2014-04-01 10:35:00
5:55 AM,68.0,60.8,78,30.10,10.0,Calm,Calm,-,N/A,,Mostly Cloudy,0,2014-04-01 10:55:00
6:15 AM,68.0,60.8,78,30.11,10.0,Calm,Calm,-,N/A,,Mostly Cloudy,0,2014-04-01 11:15:00
6:35 AM,68.0,60.8,78,30.11,10.0,SE,5.8,-,N/A,,Partly Cloudy,140,2014-04-01 11:35:00
6:55 AM,68.0,59.0,73,30.12,10.0,SE,10.4,-,N/A,,Clear,130,2014-04-01 11:55:00
7:15 AM,68.0,59.0,73,30.12,10.0,SE,6.9,-,N/A,,Clear,140,2014-04-01 12:15:00
7:35 AM,69.8,59.0,68,30.11,10.0,Calm,Calm,12.7,N/A,,Clear,0,2014-04-01 12:35:00
7:55 AM,68.0,59.0,73,30.13,10.0,SE,12.7,-,N/A,,Clear,130,2014-04-01 12:55:00
8:15 AM,68.0,59.0,73,30.14,10.0,SE,13.8,-,N/A,,Clear,130,2014-04-01 13:15:00
8:35 AM,68.0,59.0,73,30.15,10.0,SE,12.7,-,N/A,,Clear,130,2014-04-01 13:35:00
8:55 AM,68.0,59.0,73,30.15,10.0,SE,13.8,-,N/A,,Clear,130,2014-04-01 13:55:00
9:15 AM,68.0,59.0,73,30.16,10.0,SE,13.8,-,N/A,,Clear,130,2014-04-01 14:15:00
9:35 AM,68.0,59.0,73,30.16,10.0,ESE,16.1,-,N/A,,Clear,120,2014-04-01 14:35:00
9:55 AM,68.0,59.0,73,30.17,10.0,ESE,16.1,-,N/A,,Partly Cloudy,120,2014-04-01 14:55:00
10:15 AM,68.0,59.0,73,30.16,10.0,ESE,17.3,-,N/A,,Partly Cloudy,120,2014-04-01 15:15:00
10:35 AM,68.0,59.0,73,30.17,10.0,ESE,17.3,-,N/A,,Clear,120,2014-04-01 15:35:00
10:55 AM,68.0,59.0,73,30.17,10.0,ESE,17.3,-,N/A,,Clear,120,2014-04-01 15:55:00
11:15 AM,68.0,59.0,73,30.16,10.0,ESE,17.3,-,N/A,,Clear,120,2014-04-01 16:15:00
11:35 AM,68.0,59.0,73,30.16,10.0,ESE,16.1,-,N/A,,Clear,120,2014-04-01 16:35:00
11:55 AM,68.0,59.0,73,30.16,10.0,SE,17.3,-,N/A,,Clear,130,2014-04-01 16:55:00
12:15 PM,68.0,59.0,73,30.15,10.0,SE,16.1,-,N/A,,Clear,130,2014-04-01 17:15:00
12:35 PM,68.0,59.0,73,30.15,10.0,SE,17.3,-,N/A,,Clear,130,2014-04-01 17:35:00
12:55 PM,69.8,59.0,68,30.14,10.0,SE,15.0,-,N/A,,Clear,130,2014-04-01 17:55:00
1:15 PM,69.8,59.0,68,30.14,10.0,SE,16.1,-,N/A,,Clear,140,2014-04-01 18:15:00
1:35 PM,69.8,59.0,68,30.14,10.0,SE,13.8,-,N/A,,Clear,140,2014-04-01 18:35:00
1:55 PM,69.8,59.0,68,30.14,10.0,Variable,6.9,17.3,N/A,,Clear,0,2014-04-01 18:55:00
2:15 PM,71.6,59.0,64,30.13,10.0,SE,4.6,17.3,N/A,,Clear,130,2014-04-01 19:15:00
2:35 PM,69.8,60.8,73,30.13,10.0,SE,9.2,17.3,N/A,,Clear,140,2014-04-01 19:35:00
2:55 PM,69.8,59.0,68,30.12,10.0,SE,11.5,-,N/A,,Clear,130,2014-04-01 19:55:00
3:15 PM,69.8,60.8,73,30.12,10.0,Variable,6.9,16.1,N/A,,Clear,0,2014-04-01 20:15:00
3:35 PM,69.8,60.8,73,30.11,10.0,SE,8.1,16.1,N/A,,Clear,130,2014-04-01 20:35:00
3:55 PM,69.8,60.8,73,30.11,10.0,Variable,6.9,16.1,N/A,,Clear,0,2014-04-01 20:55:00
4:15 PM,69.8,60.8,73,30.10,10.0,SE,11.5,-,N/A,,Clear,130,2014-04-01 21:15:00
4:35 PM,68.0,60.8,78,30.10,10.0,SE,11.5,-,N/A,,Clear,140,2014-04-01 21:35:00
4:55 PM,68.0,60.8,78,30.10,10.0,SE,13.8,-,N/A,,Clear,130,2014-04-01 21:55:00
5:15 PM,69.8,60.8,73,30.10,10.0,SE,8.1,15.0,N/A,,Clear,140,2014-04-01 22:15:00
5:35 PM,68.0,60.8,78,30.10,10.0,SE,11.5,-,N/A,,Clear,130,2014-04-01 22:35:00
5:55 PM,68.0,62.6,83,30.10,10.0,SE,10.4,-,N/A,,Clear,130,2014-04-01 22:55:00
6:15 PM,68.0,62.6,83,30.10,10.0,SE,12.7,-,N/A,,Clear,130,2014-04-01 23:15:00
6:35 PM,68.0,62.6,83,30.10,10.0,SE,13.8,-,N/A,,Clear,130,2014-04-01 23:35:00
6:55 PM,68.0,62.6,83,30.10,10.0,SE,15.0,-,N/A,,Clear,130,2014-04-01 23:55:00
7:15 PM,68.0,62.6,83,30.10,10.0,SE,15.0,-,N/A,,Clear,130,2014-04-02 00:15:00
7:35 PM,68.0,62.6,83,30.10,10.0,SE,16.1,-,N/A,,Clear,130,2014-04-02 00:35:00
7:55 PM,68.0,62.6,83,30.10,10.0,SE,17.3,-,N/A,,Clear,130,2014-04-02 00:55:00
8:15 PM,68.0,62.6,83,30.10,10.0,SE,13.8,-,N/A,,Clear,130,2014-04-02 01:15:00
8:35 PM,68.0,62.6,83,30.10,10.0,SE,15.0,-,N/A,,Clear,140,2014-04-02 01:35:00
8:55 PM,68.0,62.6,83,30.11,10.0,SE,13.8,-,N/A,,Clear,140,2014-04-02 01:55:00
9:15 PM,69.8,64.4,83,30.10,10.0,SE,10.4,16.1,N/A,,Clear,140,2014-04-02 02:15:00
9:35 PM,69.8,64.4,83,30.10,10.0,SE,8.1,17.3,N/A,,Clear,140,2014-04-02 02:35:00
9:55 PM,69.8,64.4,83,30.11,10.0,Variable,5.8,13.8,N/A,,Clear,0,2014-04-02 02:55:00
10:15 PM,69.8,64.4,83,30.10,10.0,Variable,6.9,12.7,N/A,,Clear,0,2014-04-02 03:15:00
10:35 PM,69.8,66.2,88,30.10,10.0,Variable,6.9,15.0,N/A,,Clear,0,2014-04-02 03:35:00
10:55 PM,69.8,66.2,88,30.10,10.0,Variable,4.6,12.7,N/A,,Clear,0,2014-04-02 03:55:00
11:15 PM,69.8,66.2,88,30.10,10.0,Variable,5.8,17.3,N/A,,Clear,0,2014-04-02 04:15:00
11:35 PM,69.8,66.2,88,30.09,10.0,Variable,6.9,17.3,N/A,,Clear,0,2014-04-02 04:35:00
11:55 PM,69.8,66.2,88,30.09,10.0,Variable,5.8,12.7,N/A,,Clear,0,2014-04-02 04:55:00